Terug naar catalogus

STARLINK-37247

ActiefCommunicatieVLEO
NORAD 69835·PAYLOAD·🇺🇸 United States

Gelanceerd Jul 5, 2026 vanaf Cape Canaveral Space Force Station

Loading…

Volgende Passages (komende 24 uur)

TLE

VersSource: CelesTrak SupGP

Epoch: Sep 15, 2026, 03:24 UTC

1 69835C 26154S   26258.14215278  .00070171  00000+0  20727-2 0  2585
2 69835  53.1582 356.6116 0001199  96.7265  54.1602 15.34363620    12

Volg STARLINK-37247 in realtime met AllMySat

Download on the App Store